F7LR LSGG-LFKJ

Flight info

Callsign F7LR
Flight time 2h 28m
Altitude 9000
Route LSGG1A CBY DCT BELUS DCT LTP DCT LFLU DCT ITR DCT CNM
Aircraft DA42/L-SDFGRY/C

Departure

Time 2026-05-05 12:51
Airport Geneva International Airport (LSGG)

Arrival

Time 2026-05-05 15:19
Airport Ajaccio Napoléon Bonaparte airport (LFKJ)
Time Latitude Longitude Altitude Speed Heading
2026-05-05 12:24 46.23738 6.10003 1394 ft 0 kts 134°
2026-05-05 12:31 46.23739 6.10003 1394 ft 0 kts 134°
2026-05-05 12:37 46.23739 6.10002 1394 ft 0 kts 133°
2026-05-05 12:45 46.23716 6.10035 1403 ft 7 kts 135°
2026-05-05 12:45 46.23703 6.10088 1399 ft 7 kts 62°
2026-05-05 12:46 46.23681 6.10154 1389 ft 8 kts 60°
2026-05-05 12:46 46.23735 6.10235 1386 ft 16 kts 44°
2026-05-05 12:46 46.23831 6.10377 1384 ft 22 kts 45°
2026-05-05 12:46 46.23943 6.10540 1385 ft 23 kts 46°
2026-05-05 12:47 46.24036 6.10676 1385 ft 11 kts 46°
2026-05-05 12:47 46.24002 6.10764 1381 ft 10 kts 129°
2026-05-05 12:47 46.23984 6.10846 1378 ft 9 kts 136°
2026-05-05 12:47 46.23955 6.10875 1378 ft 1 kts 181°
2026-05-05 12:49 46.23951 6.10874 1378 ft 4 kts 192°
2026-05-05 12:50 46.23910 6.10895 1376 ft 7 kts 135°
2026-05-05 12:50 46.23867 6.10945 1376 ft 9 kts 167°
2026-05-05 12:50 46.23805 6.10895 1376 ft 19 kts 224°
2026-05-05 12:50 46.23571 6.10554 1378 ft 72 kts 225°
2026-05-05 12:51 46.23171 6.09961 1529 ft 88 kts 223°
2026-05-05 12:51 46.22721 6.09321 1844 ft 92 kts 221°
2026-05-05 12:51 46.22242 6.08661 2190 ft 99 kts 226°
2026-05-05 12:51 46.21757 6.07955 2530 ft 99 kts 229°
2026-05-05 12:52 46.21288 6.07238 2921 ft 97 kts 226°
2026-05-05 12:52 46.20825 6.06539 3296 ft 96 kts 225°
2026-05-05 12:52 46.20370 6.05855 3666 ft 92 kts 223°
2026-05-05 12:52 46.19919 6.05184 4013 ft 92 kts 224°
2026-05-05 12:53 46.19469 6.04524 4338 ft 93 kts 223°
2026-05-05 12:53 46.19018 6.03862 4661 ft 93 kts 223°
2026-05-05 12:53 46.18562 6.03194 4984 ft 93 kts 223°
2026-05-05 12:53 46.18108 6.02528 5307 ft 94 kts 223°
2026-05-05 12:54 46.17184 6.01179 5990 ft 95 kts 224°
2026-05-05 12:54 46.16718 6.00498 6343 ft 95 kts 224°
2026-05-05 12:54 46.16228 5.99870 6660 ft 94 kts 212°
2026-05-05 12:55 46.15669 5.99385 6976 ft 94 kts 212°
2026-05-05 12:55 46.15110 5.98900 7305 ft 94 kts 212°
2026-05-05 12:55 46.14551 5.98416 7632 ft 94 kts 212°
2026-05-05 12:55 46.13985 5.97927 7978 ft 95 kts 212°
2026-05-05 12:56 46.13424 5.97441 8289 ft 96 kts 212°
2026-05-05 12:56 46.12854 5.96949 8645 ft 95 kts 211°
2026-05-05 12:56 46.12284 5.96455 8918 ft 102 kts 212°
2026-05-05 12:56 46.11624 5.95877 8921 ft 118 kts 212°
2026-05-05 12:57 46.10886 5.95234 8916 ft 129 kts 211°
2026-05-05 12:57 46.10097 5.94551 8922 ft 135 kts 211°
2026-05-05 12:57 46.09275 5.93844 8926 ft 139 kts 211°
2026-05-05 12:57 46.08439 5.93125 8915 ft 140 kts 210°
2026-05-05 12:58 46.07611 5.92414 8934 ft 137 kts 210°
2026-05-05 12:58 46.06821 5.91736 9117 ft 126 kts 210°
2026-05-05 12:58 46.06133 5.91151 9698 ft 102 kts 210°
2026-05-05 12:58 46.05560 5.90664 10128 ft 94 kts 210°
2026-05-05 12:59 46.04993 5.90177 10432 ft 95 kts 210°
2026-05-05 12:59 46.04424 5.89684 10747 ft 96 kts 210°
2026-05-05 12:59 46.03842 5.89178 10930 ft 105 kts 211°
2026-05-05 13:00 46.02413 5.87931 10947 ft 134 kts 211°
2026-05-05 13:00 46.01580 5.87208 10945 ft 145 kts 211°
2026-05-05 13:01 45.98833 5.84850 10928 ft 156 kts 211°
2026-05-05 13:01 45.97910 5.84062 10930 ft 153 kts 210°
2026-05-05 13:01 45.97011 5.83293 10930 ft 151 kts 210°
2026-05-05 13:01 45.96110 5.82522 10930 ft 150 kts 210°
2026-05-05 13:02 45.95221 5.81760 10929 ft 148 kts 210°
2026-05-05 13:02 45.94336 5.81001 10931 ft 148 kts 210°
2026-05-05 13:02 45.93456 5.80245 10927 ft 148 kts 210°
2026-05-05 13:02 45.92572 5.79486 10930 ft 148 kts 210°
2026-05-05 13:03 45.91686 5.78727 10928 ft 148 kts 210°
2026-05-05 13:03 45.90804 5.77971 10931 ft 147 kts 210°
2026-05-05 13:03 45.89928 5.77221 10928 ft 145 kts 210°
2026-05-05 13:03 45.89059 5.76477 10936 ft 146 kts 210°
2026-05-05 13:04 45.88188 5.75734 10923 ft 145 kts 209°
2026-05-05 13:04 45.87299 5.75033 10929 ft 147 kts 208°
2026-05-05 13:04 45.86392 5.74307 10922 ft 151 kts 209°
2026-05-05 13:04 45.85470 5.73572 10921 ft 151 kts 208°
2026-05-05 13:05 45.84565 5.72854 10919 ft 150 kts 208°
2026-05-05 13:05 45.83660 5.72137 10917 ft 148 kts 208°
2026-05-05 13:05 45.82759 5.71424 10918 ft 148 kts 208°
2026-05-05 13:05 45.81860 5.70712 10918 ft 147 kts 208°
2026-05-05 13:06 45.80962 5.70002 10915 ft 147 kts 208°
2026-05-05 13:06 45.80064 5.69290 10918 ft 148 kts 208°
2026-05-05 13:06 45.79163 5.68577 10917 ft 148 kts 208°
2026-05-05 13:06 45.78260 5.67861 10912 ft 148 kts 208°
2026-05-05 13:07 45.77363 5.67152 10912 ft 147 kts 208°
2026-05-05 13:07 45.76469 5.66446 10914 ft 147 kts 208°
2026-05-05 13:07 45.75584 5.65747 10912 ft 147 kts 208°
2026-05-05 13:07 45.74686 5.65037 10913 ft 147 kts 208°
2026-05-05 13:08 45.73790 5.64329 10910 ft 147 kts 208°
2026-05-05 13:08 45.72895 5.63623 10916 ft 147 kts 208°
2026-05-05 13:08 45.72002 5.62917 10911 ft 146 kts 208°
2026-05-05 13:08 45.71109 5.62214 10912 ft 147 kts 208°
2026-05-05 13:09 45.70216 5.61510 10910 ft 147 kts 208°
2026-05-05 13:09 45.69323 5.60806 10909 ft 146 kts 208°
2026-05-05 13:09 45.68427 5.60101 10916 ft 148 kts 208°
2026-05-05 13:09 45.67520 5.59383 10911 ft 149 kts 209°
2026-05-05 13:10 45.66631 5.58631 10911 ft 148 kts 209°
2026-05-05 13:10 45.65742 5.57897 10910 ft 147 kts 209°
2026-05-05 13:10 45.64855 5.57162 10912 ft 147 kts 209°
2026-05-05 13:10 45.63967 5.56423 10911 ft 148 kts 210°
2026-05-05 13:11 45.63076 5.55681 10910 ft 148 kts 210°
2026-05-05 13:11 45.62185 5.54938 10908 ft 148 kts 209°
2026-05-05 13:11 45.61308 5.54209 10910 ft 147 kts 209°
2026-05-05 13:11 45.60409 5.53461 10907 ft 148 kts 209°
2026-05-05 13:12 45.59531 5.52731 10911 ft 148 kts 209°
2026-05-05 13:12 45.58636 5.51986 10916 ft 150 kts 210°
2026-05-05 13:12 45.57729 5.51230 10914 ft 152 kts 210°
2026-05-05 13:12 45.56810 5.50465 10912 ft 154 kts 210°
2026-05-05 13:13 45.55889 5.49701 10913 ft 153 kts 210°
2026-05-05 13:13 45.54974 5.48943 10910 ft 152 kts 210°
2026-05-05 13:13 45.54061 5.48186 10912 ft 151 kts 210°
2026-05-05 13:13 45.53157 5.47437 10909 ft 150 kts 210°
2026-05-05 13:14 45.52256 5.46691 10909 ft 149 kts 210°
2026-05-05 13:14 45.51358 5.45947 10908 ft 149 kts 210°
2026-05-05 13:14 45.50460 5.45202 10909 ft 149 kts 210°
2026-05-05 13:14 45.49575 5.44469 10910 ft 149 kts 210°
2026-05-05 13:15 45.48679 5.43727 10910 ft 149 kts 209°
2026-05-05 13:15 45.47779 5.42981 10909 ft 149 kts 210°
2026-05-05 13:15 45.46882 5.42236 10909 ft 149 kts 210°
2026-05-05 13:15 45.45983 5.41489 10909 ft 150 kts 210°
2026-05-05 13:16 45.45083 5.40744 10908 ft 150 kts 209°
2026-05-05 13:16 45.44183 5.39997 10909 ft 150 kts 209°
2026-05-05 13:16 45.43280 5.39250 10909 ft 150 kts 210°
2026-05-05 13:16 45.42377 5.38503 10908 ft 150 kts 210°
2026-05-05 13:17 45.41478 5.37759 10906 ft 148 kts 210°
2026-05-05 13:17 45.40581 5.37017 10909 ft 149 kts 210°
2026-05-05 13:17 45.39681 5.36271 10911 ft 151 kts 210°
2026-05-05 13:17 45.39079 5.35773 10910 ft 151 kts 209°
2026-05-05 13:18 45.38172 5.35023 10910 ft 151 kts 210°
2026-05-05 13:18 45.37266 5.34275 10908 ft 150 kts 210°
2026-05-05 13:18 45.36361 5.33528 10908 ft 150 kts 210°
2026-05-05 13:18 45.35454 5.32779 10909 ft 151 kts 209°
2026-05-05 13:19 45.34255 5.31790 10908 ft 150 kts 209°
2026-05-05 13:19 45.33642 5.31285 10908 ft 150 kts 209°
2026-05-05 13:19 45.32739 5.30540 10906 ft 150 kts 209°
2026-05-05 13:19 45.31834 5.29794 10908 ft 150 kts 210°
2026-05-05 13:20 45.30937 5.29055 10903 ft 150 kts 209°
2026-05-05 13:20 45.30035 5.28312 10910 ft 150 kts 209°
2026-05-05 13:20 45.29132 5.27568 10905 ft 149 kts 209°
2026-05-05 13:20 45.28247 5.26839 10908 ft 149 kts 209°
2026-05-05 13:21 45.27346 5.26098 10906 ft 150 kts 210°
2026-05-05 13:21 45.26444 5.25356 10905 ft 150 kts 209°
2026-05-05 13:21 45.25537 5.24610 10906 ft 150 kts 210°
2026-05-05 13:21 45.24631 5.23865 10905 ft 150 kts 209°
2026-05-05 13:22 45.23727 5.23123 10905 ft 151 kts 210°
2026-05-05 13:22 45.22818 5.22376 10904 ft 151 kts 209°
2026-05-05 13:22 45.21911 5.21630 10903 ft 150 kts 209°
2026-05-05 13:22 45.21004 5.20886 10903 ft 151 kts 210°
2026-05-05 13:23 45.20098 5.20142 10902 ft 151 kts 210°
2026-05-05 13:23 45.19188 5.19395 10902 ft 151 kts 210°
2026-05-05 13:23 45.18288 5.18656 10901 ft 151 kts 209°
2026-05-05 13:23 45.17365 5.17902 10898 ft 151 kts 209°
2026-05-05 13:24 45.16465 5.17165 10901 ft 151 kts 209°
2026-05-05 13:24 45.15551 5.16417 10898 ft 152 kts 210°
2026-05-05 13:24 45.14634 5.15665 10899 ft 153 kts 210°
2026-05-05 13:24 45.13713 5.14908 10887 ft 153 kts 210°
2026-05-05 13:25 45.12793 5.14156 10888 ft 153 kts 209°
2026-05-05 13:25 45.11874 5.13407 10890 ft 152 kts 209°
2026-05-05 13:25 45.10959 5.12660 10887 ft 152 kts 210°
2026-05-05 13:25 45.10042 5.11912 10884 ft 152 kts 210°
2026-05-05 13:26 45.09123 5.11160 10887 ft 152 kts 210°
2026-05-05 13:26 45.08217 5.10420 10884 ft 152 kts 210°
2026-05-05 13:26 45.07301 5.09673 10884 ft 152 kts 209°
2026-05-05 13:26 45.06384 5.08925 10881 ft 152 kts 209°
2026-05-05 13:27 45.05469 5.08179 10882 ft 152 kts 209°
2026-05-05 13:27 45.04554 5.07433 10883 ft 151 kts 209°
2026-05-05 13:27 45.03642 5.06690 10882 ft 151 kts 210°
2026-05-05 13:27 45.02729 5.05946 10879 ft 151 kts 209°
2026-05-05 13:28 45.01818 5.05204 10881 ft 151 kts 209°
2026-05-05 13:28 45.00908 5.04464 10880 ft 151 kts 209°
2026-05-05 13:28 44.99998 5.03724 10876 ft 151 kts 210°
2026-05-05 13:28 44.99089 5.02985 10878 ft 151 kts 210°
2026-05-05 13:29 44.98180 5.02245 10878 ft 151 kts 209°
2026-05-05 13:29 44.97283 5.01515 10880 ft 151 kts 209°
2026-05-05 13:29 44.96373 5.00775 10878 ft 151 kts 209°
2026-05-05 13:29 44.95463 5.00037 10879 ft 151 kts 209°
2026-05-05 13:30 44.94553 4.99298 10877 ft 151 kts 209°
2026-05-05 13:30 44.93643 4.98560 10879 ft 151 kts 210°
2026-05-05 13:30 44.92734 4.97822 10878 ft 151 kts 210°
2026-05-05 13:30 44.91804 4.97144 10876 ft 151 kts 201°
2026-05-05 13:31 44.90775 4.96844 10876 ft 152 kts 186°
2026-05-05 13:31 44.89715 4.96807 10878 ft 152 kts 184°
2026-05-05 13:31 44.88658 4.96775 10879 ft 152 kts 184°
2026-05-05 13:31 44.87611 4.96743 10880 ft 152 kts 184°
2026-05-05 13:32 44.86549 4.96711 10878 ft 152 kts 184°
2026-05-05 13:32 44.85491 4.96678 10876 ft 152 kts 184°
2026-05-05 13:32 44.84432 4.96646 10876 ft 152 kts 184°
2026-05-05 13:32 44.83377 4.96615 10879 ft 152 kts 184°
2026-05-05 13:33 44.82318 4.96581 10877 ft 152 kts 184°
2026-05-05 13:33 44.81256 4.96549 10879 ft 153 kts 184°
2026-05-05 13:33 44.80194 4.96517 10880 ft 153 kts 184°
2026-05-05 13:33 44.79130 4.96484 10879 ft 153 kts 184°
2026-05-05 13:34 44.78064 4.96451 10882 ft 153 kts 184°
2026-05-05 13:34 44.76996 4.96419 10883 ft 154 kts 184°
2026-05-05 13:34 44.75925 4.96387 10883 ft 154 kts 184°
2026-05-05 13:34 44.74854 4.96352 10883 ft 154 kts 184°
2026-05-05 13:35 44.73778 4.96319 10884 ft 154 kts 184°
2026-05-05 13:35 44.72705 4.96286 10888 ft 154 kts 184°
2026-05-05 13:35 44.71629 4.96254 10888 ft 154 kts 184°
2026-05-05 13:35 44.70558 4.96221 10887 ft 154 kts 184°
2026-05-05 13:36 44.69486 4.96190 10888 ft 154 kts 184°
2026-05-05 13:36 44.68414 4.96159 10895 ft 154 kts 184°
2026-05-05 13:36 44.67339 4.96122 10897 ft 156 kts 184°
2026-05-05 13:36 44.66264 4.96087 10899 ft 157 kts 184°
2026-05-05 13:37 44.65160 4.96053 10899 ft 159 kts 184°
2026-05-05 13:37 44.64047 4.96019 10894 ft 160 kts 184°
2026-05-05 13:37 44.62938 4.95987 10897 ft 159 kts 184°
2026-05-05 13:37 44.61839 4.95955 10896 ft 157 kts 184°
2026-05-05 13:38 44.60749 4.95923 10895 ft 156 kts 184°
2026-05-05 13:38 44.59661 4.95890 10897 ft 156 kts 184°
2026-05-05 13:38 44.58578 4.95858 10898 ft 156 kts 184°
2026-05-05 13:38 44.57493 4.95825 10901 ft 155 kts 184°
2026-05-05 13:39 44.56413 4.95792 10902 ft 155 kts 184°
2026-05-05 13:39 44.55334 4.95759 10901 ft 155 kts 184°
2026-05-05 13:39 44.54256 4.95725 10902 ft 155 kts 184°
2026-05-05 13:39 44.53177 4.95692 10899 ft 155 kts 184°
2026-05-05 13:40 44.52115 4.95661 10904 ft 155 kts 184°
2026-05-05 13:40 44.51038 4.95629 10906 ft 155 kts 184°
2026-05-05 13:40 44.49959 4.95596 10904 ft 154 kts 184°
2026-05-05 13:40 44.48885 4.95563 10905 ft 155 kts 184°
2026-05-05 13:41 44.47806 4.95530 10901 ft 155 kts 184°
2026-05-05 13:41 44.46721 4.95498 10905 ft 156 kts 184°
2026-05-05 13:41 44.45638 4.95464 10905 ft 156 kts 184°
2026-05-05 13:41 44.44554 4.95431 10905 ft 156 kts 184°
2026-05-05 13:42 44.43471 4.95398 10902 ft 155 kts 184°
2026-05-05 13:42 44.42388 4.95366 10903 ft 155 kts 184°
2026-05-05 13:42 44.41309 4.95333 10902 ft 155 kts 184°
2026-05-05 13:42 44.40232 4.95301 10904 ft 154 kts 184°
2026-05-05 13:43 44.39172 4.95269 10904 ft 154 kts 184°
2026-05-05 13:43 44.38094 4.95237 10902 ft 155 kts 184°
2026-05-05 13:43 44.37016 4.95204 10903 ft 155 kts 184°
2026-05-05 13:43 44.35935 4.95171 10902 ft 155 kts 184°
2026-05-05 13:44 44.34857 4.95138 10901 ft 155 kts 184°
2026-05-05 13:44 44.33784 4.95106 10905 ft 154 kts 184°
2026-05-05 13:44 44.32708 4.95074 10906 ft 154 kts 184°
2026-05-05 13:44 44.31631 4.95042 10906 ft 155 kts 184°
2026-05-05 13:45 44.30551 4.95009 10906 ft 155 kts 184°
2026-05-05 13:45 44.29485 4.94976 10904 ft 155 kts 184°
2026-05-05 13:45 44.28406 4.94944 10905 ft 155 kts 184°
2026-05-05 13:45 44.27328 4.94912 10905 ft 155 kts 184°
2026-05-05 13:46 44.26250 4.94879 10906 ft 155 kts 184°
2026-05-05 13:46 44.25172 4.94847 10903 ft 155 kts 184°
2026-05-05 13:46 44.24093 4.94815 10905 ft 155 kts 184°
2026-05-05 13:46 44.23012 4.94782 10907 ft 155 kts 184°
2026-05-05 13:47 44.21932 4.94749 10903 ft 156 kts 184°
2026-05-05 13:47 44.20850 4.94717 10908 ft 155 kts 184°
2026-05-05 13:47 44.19771 4.94684 10906 ft 155 kts 184°
2026-05-05 13:47 44.18693 4.94652 10906 ft 155 kts 184°
2026-05-05 13:48 44.17613 4.94620 10906 ft 155 kts 184°
2026-05-05 13:48 44.16536 4.94588 10907 ft 155 kts 184°
2026-05-05 13:48 44.15456 4.94555 10905 ft 155 kts 184°
2026-05-05 13:48 44.14377 4.94523 10904 ft 155 kts 184°
2026-05-05 13:49 44.13308 4.94491 10903 ft 155 kts 184°
2026-05-05 13:49 44.12226 4.94459 10903 ft 156 kts 184°
2026-05-05 13:49 44.11142 4.94426 10906 ft 156 kts 184°
2026-05-05 13:49 44.10060 4.94393 10903 ft 156 kts 184°
2026-05-05 13:50 44.08975 4.94361 10904 ft 156 kts 184°
2026-05-05 13:50 44.07889 4.94329 10904 ft 156 kts 184°
2026-05-05 13:50 44.06805 4.94297 10904 ft 156 kts 184°
2026-05-05 13:50 44.05716 4.94264 10904 ft 156 kts 184°
2026-05-05 13:51 44.04629 4.94231 10905 ft 156 kts 184°
2026-05-05 13:51 44.03544 4.94199 10903 ft 156 kts 184°
2026-05-05 13:51 44.02456 4.94168 10903 ft 156 kts 184°
2026-05-05 13:51 44.01381 4.94135 10908 ft 156 kts 184°
2026-05-05 13:52 44.00293 4.94101 10906 ft 157 kts 184°
2026-05-05 13:52 43.99204 4.94069 10905 ft 157 kts 184°
2026-05-05 13:52 43.98111 4.94037 10905 ft 157 kts 184°
2026-05-05 13:52 43.97020 4.94004 10904 ft 157 kts 184°
2026-05-05 13:53 43.95929 4.93972 10904 ft 157 kts 184°
2026-05-05 13:53 43.94838 4.93939 10904 ft 157 kts 184°
2026-05-05 13:53 43.93750 4.93907 10903 ft 156 kts 184°
2026-05-05 13:53 43.92666 4.93875 10905 ft 156 kts 184°
2026-05-05 13:54 43.91579 4.93844 10905 ft 156 kts 184°
2026-05-05 13:54 43.90493 4.93811 10907 ft 156 kts 184°
2026-05-05 13:54 43.89405 4.93778 10905 ft 157 kts 184°
2026-05-05 13:54 43.88311 4.93745 10908 ft 157 kts 184°
2026-05-05 13:55 43.87220 4.93713 10907 ft 157 kts 184°
2026-05-05 13:55 43.86127 4.93680 10904 ft 157 kts 184°
2026-05-05 13:55 43.85030 4.93648 10907 ft 157 kts 184°
2026-05-05 13:55 43.83935 4.93616 10904 ft 157 kts 184°
2026-05-05 13:56 43.82855 4.93583 10903 ft 157 kts 184°
2026-05-05 13:56 43.81758 4.93551 10904 ft 157 kts 184°
2026-05-05 13:56 43.80663 4.93518 10904 ft 157 kts 184°
2026-05-05 13:56 43.79566 4.93486 10905 ft 157 kts 185°
2026-05-05 13:57 43.78474 4.93454 10903 ft 157 kts 185°
2026-05-05 13:57 43.77378 4.93421 10902 ft 157 kts 185°
2026-05-05 13:57 43.76281 4.93389 10901 ft 158 kts 185°
2026-05-05 13:57 43.75184 4.93356 10905 ft 157 kts 185°
2026-05-05 13:58 43.74091 4.93324 10906 ft 157 kts 185°
2026-05-05 13:58 43.72994 4.93292 10906 ft 158 kts 185°
2026-05-05 13:58 43.71909 4.93261 10904 ft 158 kts 185°
2026-05-05 13:58 43.70808 4.93227 10904 ft 159 kts 185°
2026-05-05 13:59 43.68597 4.93160 10905 ft 159 kts 185°
2026-05-05 13:59 43.67491 4.93127 10902 ft 158 kts 185°
2026-05-05 14:00 43.65289 4.93065 10929 ft 158 kts 185°
2026-05-05 14:00 43.64563 4.93043 10929 ft 158 kts 185°
2026-05-05 14:00 43.63095 4.93000 10935 ft 157 kts 185°
2026-05-05 14:00 43.62000 4.92968 10932 ft 157 kts 185°
2026-05-05 14:01 43.60903 4.92936 10934 ft 157 kts 185°
2026-05-05 14:01 43.59824 4.92904 10933 ft 157 kts 185°
2026-05-05 14:01 43.58720 4.92872 10934 ft 156 kts 185°
2026-05-05 14:01 43.57646 4.92840 10932 ft 157 kts 185°
2026-05-05 14:02 43.56555 4.92808 10936 ft 157 kts 185°
2026-05-05 14:02 43.55459 4.92903 10927 ft 160 kts 173°
2026-05-05 14:02 43.54406 4.93475 10946 ft 168 kts 155°
2026-05-05 14:02 43.53501 4.94556 10931 ft 178 kts 136°
2026-05-05 14:03 43.52896 4.96094 10929 ft 188 kts 114°
2026-05-05 14:03 43.52736 4.97894 10943 ft 192 kts 94°
2026-05-05 14:03 43.52780 4.99734 10932 ft 191 kts 93°
2026-05-05 14:03 43.52833 5.01573 10937 ft 194 kts 93°
2026-05-05 14:04 43.52881 5.03425 10906 ft 192 kts 93°
2026-05-05 14:04 43.52931 5.05250 10910 ft 189 kts 93°
2026-05-05 14:04 43.52958 5.06457 10927 ft 192 kts 93°
2026-05-05 14:04 43.53025 5.08940 10913 ft 195 kts 94°
2026-05-05 14:05 43.53051 5.10203 10924 ft 196 kts 93°
2026-05-05 14:05 43.53114 5.12703 10914 ft 197 kts 93°
2026-05-05 14:05 43.53155 5.14582 10906 ft 195 kts 93°
2026-05-05 14:05 43.53205 5.16443 10909 ft 194 kts 92°
2026-05-05 14:06 43.53237 5.17696 10909 ft 193 kts 93°
2026-05-05 14:06 43.53275 5.19518 10913 ft 193 kts 93°
2026-05-05 14:06 43.53322 5.21361 10929 ft 191 kts 92°
2026-05-05 14:06 43.53368 5.23182 10936 ft 189 kts 93°
2026-05-05 14:07 43.53410 5.24988 10933 ft 188 kts 93°
2026-05-05 14:07 43.53451 5.26790 10934 ft 188 kts 93°
2026-05-05 14:07 43.53492 5.28584 10933 ft 187 kts 93°
2026-05-05 14:07 43.53533 5.30371 10932 ft 186 kts 93°
2026-05-05 14:08 43.53573 5.32152 10931 ft 185 kts 93°
2026-05-05 14:08 43.53612 5.33930 10928 ft 185 kts 93°
2026-05-05 14:08 43.53651 5.35701 10930 ft 185 kts 94°
2026-05-05 14:08 43.53689 5.37455 10932 ft 186 kts 94°
2026-05-05 14:09 43.53729 5.39240 10931 ft 186 kts 93°
2026-05-05 14:09 43.53769 5.41032 10926 ft 187 kts 93°
2026-05-05 14:09 43.53808 5.42831 10925 ft 188 kts 94°
2026-05-05 14:09 43.53847 5.44628 10923 ft 187 kts 94°
2026-05-05 14:10 43.53885 5.46423 10923 ft 187 kts 93°
2026-05-05 14:10 43.53923 5.48223 10921 ft 188 kts 93°
2026-05-05 14:10 43.53962 5.50021 10914 ft 187 kts 93°
2026-05-05 14:10 43.54000 5.51807 10922 ft 186 kts 93°
2026-05-05 14:11 43.54038 5.53593 10920 ft 187 kts 93°
2026-05-05 14:11 43.54074 5.55358 10914 ft 186 kts 93°
2026-05-05 14:11 43.54107 5.57133 10913 ft 185 kts 94°
2026-05-05 14:11 43.54146 5.58897 10914 ft 184 kts 93°
2026-05-05 14:12 43.54185 5.60658 10914 ft 183 kts 94°
2026-05-05 14:12 43.54220 5.62415 10908 ft 182 kts 94°
2026-05-05 14:12 43.54254 5.64137 10920 ft 177 kts 94°
2026-05-05 14:12 43.54289 5.65817 10910 ft 174 kts 93°
2026-05-05 14:13 43.54322 5.67487 10918 ft 176 kts 94°
2026-05-05 14:13 43.54352 5.69185 10922 ft 179 kts 94°
2026-05-05 14:13 43.54383 5.70914 10918 ft 181 kts 94°
2026-05-05 14:13 43.54416 5.72659 10918 ft 183 kts 94°
2026-05-05 14:14 43.54449 5.74413 10919 ft 183 kts 94°
2026-05-05 14:14 43.54483 5.76172 10922 ft 184 kts 94°
2026-05-05 14:14 43.54516 5.77936 10914 ft 184 kts 93°
2026-05-05 14:14 43.54549 5.79674 10914 ft 183 kts 94°
2026-05-05 14:15 43.54582 5.81429 10913 ft 183 kts 94°
2026-05-05 14:15 43.54614 5.83182 10916 ft 184 kts 94°
2026-05-05 14:15 43.54646 5.84945 10916 ft 185 kts 94°
2026-05-05 14:15 43.54676 5.86725 10913 ft 186 kts 94°
2026-05-05 14:16 43.54709 5.88498 10910 ft 184 kts 94°
2026-05-05 14:16 43.54742 5.90261 10916 ft 184 kts 94°
2026-05-05 14:16 43.54773 5.92030 10910 ft 185 kts 94°
2026-05-05 14:16 43.54803 5.93805 10915 ft 185 kts 94°
2026-05-05 14:17 43.54832 5.95577 10916 ft 185 kts 94°
2026-05-05 14:17 43.54863 5.97350 10913 ft 185 kts 94°
2026-05-05 14:17 43.54893 5.99125 10915 ft 186 kts 94°
2026-05-05 14:17 43.54923 6.00912 10915 ft 187 kts 94°
2026-05-05 14:18 43.54951 6.02683 10914 ft 188 kts 93°
2026-05-05 14:18 43.54983 6.04489 10911 ft 189 kts 93°
2026-05-05 14:18 43.55010 6.06299 10910 ft 189 kts 93°
2026-05-05 14:18 43.55039 6.08104 10910 ft 188 kts 93°
2026-05-05 14:19 43.55069 6.09901 10912 ft 187 kts 93°
2026-05-05 14:19 43.55098 6.11695 10913 ft 187 kts 93°
2026-05-05 14:19 43.55126 6.13495 10917 ft 188 kts 93°
2026-05-05 14:19 43.55153 6.15310 10916 ft 191 kts 93°
2026-05-05 14:20 43.55180 6.17147 10915 ft 192 kts 93°
2026-05-05 14:20 43.55209 6.18980 10913 ft 191 kts 93°
2026-05-05 14:20 43.55238 6.20810 10908 ft 190 kts 93°
2026-05-05 14:20 43.55265 6.22622 10908 ft 189 kts 93°
2026-05-05 14:21 43.55293 6.24403 10908 ft 187 kts 93°
2026-05-05 14:21 43.55319 6.26197 10910 ft 187 kts 94°
2026-05-05 14:21 43.55344 6.27991 10907 ft 187 kts 93°
2026-05-05 14:21 43.55370 6.29781 10908 ft 186 kts 93°
2026-05-05 14:22 43.55395 6.31561 10912 ft 186 kts 93°
2026-05-05 14:22 43.55419 6.33351 10911 ft 186 kts 93°
2026-05-05 14:22 43.55443 6.35138 10911 ft 187 kts 93°
2026-05-05 14:22 43.55467 6.36926 10913 ft 187 kts 93°
2026-05-05 14:23 43.55492 6.38717 10909 ft 187 kts 93°
2026-05-05 14:23 43.55515 6.40504 10910 ft 187 kts 93°
2026-05-05 14:23 43.55542 6.42296 10910 ft 187 kts 93°
2026-05-05 14:23 43.55563 6.44092 10914 ft 187 kts 93°
2026-05-05 14:24 43.55584 6.45892 10912 ft 188 kts 93°
2026-05-05 14:24 43.55606 6.47674 10915 ft 188 kts 93°
2026-05-05 14:24 43.55630 6.49495 10917 ft 188 kts 92°
2026-05-05 14:24 43.55653 6.51292 10916 ft 187 kts 93°
2026-05-05 14:25 43.55676 6.53090 10918 ft 187 kts 93°
2026-05-05 14:25 43.55697 6.54881 10919 ft 187 kts 93°
2026-05-05 14:25 43.55717 6.56650 10918 ft 188 kts 93°
2026-05-05 14:25 43.55738 6.58453 10917 ft 187 kts 93°
2026-05-05 14:26 43.55760 6.60241 10919 ft 186 kts 93°
2026-05-05 14:26 43.55781 6.62024 10924 ft 186 kts 93°
2026-05-05 14:26 43.55800 6.63807 10937 ft 187 kts 93°
2026-05-05 14:26 43.55820 6.65600 10935 ft 186 kts 92°
2026-05-05 14:27 43.55841 6.67379 10938 ft 186 kts 93°
2026-05-05 14:27 43.55858 6.69177 10939 ft 187 kts 93°
2026-05-05 14:27 43.55876 6.70976 10936 ft 188 kts 93°
2026-05-05 14:27 43.55895 6.72773 10938 ft 187 kts 93°
2026-05-05 14:28 43.55914 6.74568 10935 ft 187 kts 93°
2026-05-05 14:28 43.55933 6.76344 10939 ft 188 kts 93°
2026-05-05 14:28 43.55951 6.78150 10935 ft 188 kts 93°
2026-05-05 14:28 43.55968 6.79957 10937 ft 188 kts 93°
2026-05-05 14:29 43.55985 6.81760 10937 ft 188 kts 93°
2026-05-05 14:29 43.56003 6.83575 10937 ft 189 kts 93°
2026-05-05 14:29 43.56018 6.85381 10935 ft 189 kts 94°
2026-05-05 14:29 43.55752 6.87119 10933 ft 183 kts 118°
2026-05-05 14:30 43.55068 6.88551 10937 ft 177 kts 138°
2026-05-05 14:30 43.54240 6.89800 10938 ft 176 kts 139°
2026-05-05 14:30 43.53409 6.91041 10940 ft 177 kts 139°
2026-05-05 14:30 43.52575 6.92287 10941 ft 177 kts 139°
2026-05-05 14:31 43.51742 6.93534 10939 ft 177 kts 139°
2026-05-05 14:31 43.50906 6.94785 10939 ft 177 kts 139°
2026-05-05 14:31 43.50072 6.96035 10940 ft 177 kts 139°
2026-05-05 14:31 43.49247 6.97270 10938 ft 178 kts 139°
2026-05-05 14:32 43.48411 6.98521 10938 ft 178 kts 139°
2026-05-05 14:32 43.47574 6.99773 10938 ft 178 kts 139°
2026-05-05 14:32 43.46737 7.01023 10938 ft 177 kts 139°
2026-05-05 14:32 43.45899 7.02276 10936 ft 177 kts 140°
2026-05-05 14:33 43.45062 7.03526 10938 ft 177 kts 140°
2026-05-05 14:33 43.44226 7.04774 10936 ft 177 kts 140°
2026-05-05 14:33 43.43388 7.06024 10936 ft 178 kts 140°
2026-05-05 14:33 43.42551 7.07272 10938 ft 178 kts 140°
2026-05-05 14:34 43.41713 7.08522 10936 ft 178 kts 140°
2026-05-05 14:34 43.40874 7.09773 10934 ft 178 kts 140°
2026-05-05 14:34 43.40035 7.11022 10936 ft 178 kts 140°
2026-05-05 14:34 43.39194 7.12275 10938 ft 178 kts 140°
2026-05-05 14:35 43.38354 7.13525 10938 ft 178 kts 140°
2026-05-05 14:35 43.37511 7.14779 10937 ft 178 kts 140°
2026-05-05 14:35 43.36681 7.16013 10937 ft 178 kts 141°
2026-05-05 14:35 43.35838 7.17265 10936 ft 178 kts 141°
2026-05-05 14:36 43.34996 7.18516 10935 ft 178 kts 141°
2026-05-05 14:36 43.34155 7.19766 10936 ft 178 kts 141°
2026-05-05 14:36 43.33312 7.21017 10933 ft 178 kts 141°
2026-05-05 14:36 43.32469 7.22268 10937 ft 178 kts 141°
2026-05-05 14:37 43.31625 7.23519 10935 ft 178 kts 141°
2026-05-05 14:37 43.30782 7.24770 10937 ft 178 kts 141°
2026-05-05 14:37 43.29941 7.26016 10937 ft 178 kts 141°
2026-05-05 14:37 43.29100 7.27261 10938 ft 178 kts 141°
2026-05-05 14:38 43.28260 7.28504 10937 ft 178 kts 141°
2026-05-05 14:38 43.27419 7.29748 10937 ft 178 kts 141°
2026-05-05 14:38 43.26577 7.30994 10935 ft 178 kts 141°
2026-05-05 14:38 43.25735 7.32239 10938 ft 178 kts 142°
2026-05-05 14:39 43.24903 7.33469 10938 ft 178 kts 142°
2026-05-05 14:39 43.24060 7.34714 10937 ft 178 kts 142°
2026-05-05 14:39 43.23217 7.35958 10936 ft 178 kts 142°
2026-05-05 14:39 43.22374 7.37204 10936 ft 178 kts 142°
2026-05-05 14:40 43.21531 7.38446 10936 ft 178 kts 142°
2026-05-05 14:40 43.20689 7.39688 10938 ft 178 kts 142°
2026-05-05 14:40 43.19847 7.40930 10939 ft 178 kts 142°
2026-05-05 14:40 43.19004 7.42172 10937 ft 178 kts 142°
2026-05-05 14:41 43.18172 7.43396 10936 ft 178 kts 142°
2026-05-05 14:41 43.17331 7.44635 10934 ft 178 kts 142°
2026-05-05 14:41 43.16490 7.45872 10937 ft 177 kts 142°
2026-05-05 14:41 43.15648 7.47112 10935 ft 177 kts 142°
2026-05-05 14:42 43.14806 7.48348 10938 ft 177 kts 142°
2026-05-05 14:42 43.13966 7.49583 10939 ft 177 kts 142°
2026-05-05 14:42 43.13125 7.50819 10938 ft 177 kts 142°
2026-05-05 14:42 43.12283 7.52054 10937 ft 177 kts 142°
2026-05-05 14:43 43.11443 7.53288 10938 ft 177 kts 142°
2026-05-05 14:43 43.10600 7.54524 10937 ft 177 kts 142°
2026-05-05 14:43 43.09758 7.55759 10936 ft 177 kts 142°
2026-05-05 14:43 43.08917 7.56992 10937 ft 177 kts 142°
2026-05-05 14:44 43.08075 7.58225 10940 ft 177 kts 142°
2026-05-05 14:44 43.07235 7.59455 10935 ft 177 kts 142°
2026-05-05 14:44 43.06394 7.60687 10936 ft 177 kts 142°
2026-05-05 14:44 43.05552 7.61919 10938 ft 177 kts 142°
2026-05-05 14:45 43.04710 7.63150 10936 ft 177 kts 142°
2026-05-05 14:45 43.03879 7.64365 10938 ft 177 kts 142°
2026-05-05 14:45 43.03038 7.65594 10939 ft 177 kts 142°
2026-05-05 14:45 43.02198 7.66821 10938 ft 177 kts 142°
2026-05-05 14:46 43.01356 7.68050 10937 ft 177 kts 142°
2026-05-05 14:46 43.00515 7.69277 10939 ft 177 kts 142°
2026-05-05 14:46 42.99675 7.70503 10940 ft 176 kts 142°
2026-05-05 14:46 42.98835 7.71728 10940 ft 176 kts 142°
2026-05-05 14:47 42.97996 7.72951 10936 ft 176 kts 142°
2026-05-05 14:47 42.97155 7.74176 10940 ft 176 kts 142°
2026-05-05 14:47 42.96328 7.75381 10941 ft 176 kts 142°
2026-05-05 14:47 42.95489 7.76602 10942 ft 176 kts 142°
2026-05-05 14:48 42.94649 7.77824 10944 ft 176 kts 142°
2026-05-05 14:48 42.93812 7.79042 10945 ft 176 kts 142°
2026-05-05 14:48 42.92975 7.80258 10944 ft 176 kts 142°
2026-05-05 14:48 42.92137 7.81476 10944 ft 176 kts 142°
2026-05-05 14:49 42.91299 7.82693 10938 ft 176 kts 142°
2026-05-05 14:49 42.90463 7.83907 10943 ft 176 kts 142°
2026-05-05 14:49 42.89626 7.85122 10945 ft 176 kts 142°
2026-05-05 14:49 42.88789 7.86337 10939 ft 176 kts 142°
2026-05-05 14:50 42.87953 7.87548 10940 ft 175 kts 142°
2026-05-05 14:50 42.87127 7.88746 10938 ft 175 kts 142°
2026-05-05 14:50 42.86289 7.89960 10945 ft 175 kts 142°
2026-05-05 14:50 42.85454 7.91169 10944 ft 175 kts 142°
2026-05-05 14:51 42.84616 7.92382 10944 ft 175 kts 142°
2026-05-05 14:51 42.83780 7.93592 10943 ft 175 kts 142°
2026-05-05 14:51 42.82942 7.94804 10935 ft 175 kts 142°
2026-05-05 14:51 42.82105 7.96015 10942 ft 175 kts 142°
2026-05-05 14:52 42.81270 7.97221 10941 ft 175 kts 142°
2026-05-05 14:52 42.80431 7.98433 10936 ft 175 kts 142°
2026-05-05 14:52 42.79594 7.99642 10942 ft 176 kts 142°
2026-05-05 14:52 42.78756 8.00852 10945 ft 176 kts 142°
2026-05-05 14:53 42.77923 8.02039 10942 ft 174 kts 145°
2026-05-05 14:53 42.76954 8.02954 10949 ft 168 kts 159°
2026-05-05 14:53 42.75936 8.03731 10947 ft 168 kts 159°
2026-05-05 14:53 42.74915 8.04504 10948 ft 168 kts 159°
2026-05-05 14:54 42.73896 8.05277 10943 ft 168 kts 159°
2026-05-05 14:54 42.72877 8.06050 10947 ft 168 kts 159°
2026-05-05 14:54 42.71859 8.06823 10945 ft 167 kts 159°
2026-05-05 14:54 42.70841 8.07596 10945 ft 167 kts 159°
2026-05-05 14:55 42.69824 8.08367 10938 ft 167 kts 159°
2026-05-05 14:55 42.69151 8.08878 10949 ft 167 kts 159°
2026-05-05 14:55 42.68136 8.09648 10948 ft 167 kts 159°
2026-05-05 14:55 42.67119 8.10418 10945 ft 167 kts 159°
2026-05-05 14:56 42.66101 8.11190 10948 ft 167 kts 159°
2026-05-05 14:56 42.65085 8.11960 10946 ft 167 kts 159°
2026-05-05 14:56 42.64069 8.12729 10944 ft 167 kts 159°
2026-05-05 14:56 42.63052 8.13499 10946 ft 167 kts 159°
2026-05-05 14:57 42.62033 8.14269 10946 ft 167 kts 159°
2026-05-05 14:57 42.61016 8.15038 10943 ft 168 kts 159°
2026-05-05 14:57 42.59998 8.15808 10943 ft 168 kts 159°
2026-05-05 14:57 42.58978 8.16578 10945 ft 168 kts 159°
2026-05-05 14:58 42.57970 8.17339 10946 ft 168 kts 159°
2026-05-05 14:58 42.56951 8.18109 10945 ft 168 kts 159°
2026-05-05 14:58 42.55932 8.18878 10945 ft 168 kts 159°
2026-05-05 14:58 42.54910 8.19649 10945 ft 168 kts 159°
2026-05-05 14:59 42.53892 8.20417 10943 ft 168 kts 159°
2026-05-05 14:59 42.52871 8.21187 10946 ft 168 kts 159°
2026-05-05 14:59 42.51849 8.21957 10948 ft 168 kts 159°
2026-05-05 14:59 42.50830 8.22725 10945 ft 168 kts 159°
2026-05-05 15:00 42.49811 8.23493 10948 ft 167 kts 159°
2026-05-05 15:00 42.49135 8.24002 10950 ft 167 kts 159°
2026-05-05 15:00 42.47787 8.25015 10951 ft 167 kts 159°
2026-05-05 15:00 42.46768 8.25776 10949 ft 167 kts 159°
2026-05-05 15:01 42.45749 8.26542 10947 ft 167 kts 159°
2026-05-05 15:01 42.44732 8.27310 10947 ft 167 kts 158°
2026-05-05 15:01 42.43714 8.28077 10945 ft 168 kts 158°
2026-05-05 15:01 42.42681 8.28850 10814 ft 170 kts 159°
2026-05-05 15:02 42.41649 8.29622 10634 ft 169 kts 158°
2026-05-05 15:02 42.40624 8.30394 10451 ft 168 kts 158°
2026-05-05 15:02 42.39601 8.31164 10263 ft 168 kts 158°
2026-05-05 15:02 42.38582 8.31930 10079 ft 167 kts 158°
2026-05-05 15:03 42.37566 8.32692 9898 ft 167 kts 158°
2026-05-05 15:03 42.36552 8.33452 9703 ft 166 kts 158°
2026-05-05 15:03 42.35543 8.34208 9522 ft 165 kts 158°
2026-05-05 15:03 42.34540 8.34960 9337 ft 165 kts 157°
2026-05-05 15:04 42.33537 8.35711 9153 ft 164 kts 157°
2026-05-05 15:04 42.32556 8.36445 8976 ft 163 kts 157°
2026-05-05 15:04 42.31564 8.37187 8796 ft 162 kts 157°
2026-05-05 15:04 42.30579 8.37924 8618 ft 161 kts 156°
2026-05-05 15:05 42.28623 8.39387 8262 ft 160 kts 156°
2026-05-05 15:05 42.27649 8.40114 8087 ft 159 kts 156°
2026-05-05 15:05 42.26680 8.40837 7909 ft 159 kts 156°
2026-05-05 15:06 42.25716 8.41556 7736 ft 158 kts 156°
2026-05-05 15:06 42.24756 8.42275 7562 ft 158 kts 156°
2026-05-05 15:06 42.23802 8.43002 7393 ft 157 kts 155°
2026-05-05 15:06 42.22852 8.43729 7246 ft 157 kts 155°
2026-05-05 15:07 42.21906 8.44453 7085 ft 156 kts 155°
2026-05-05 15:07 42.20974 8.45166 6930 ft 156 kts 155°
2026-05-05 15:07 42.20052 8.45872 6761 ft 155 kts 154°
2026-05-05 15:07 42.19129 8.46580 6643 ft 152 kts 154°
2026-05-05 15:08 42.18197 8.47291 6444 ft 155 kts 155°
2026-05-05 15:08 42.17251 8.48011 6233 ft 157 kts 154°
2026-05-05 15:08 42.16296 8.48738 6020 ft 158 kts 154°
2026-05-05 15:08 42.15411 8.49605 5870 ft 156 kts 144°
2026-05-05 15:09 42.14578 8.50547 5702 ft 155 kts 144°
2026-05-05 15:09 42.13751 8.51480 5542 ft 155 kts 144°
2026-05-05 15:09 42.12925 8.52410 5378 ft 154 kts 144°
2026-05-05 15:09 42.12099 8.53338 5214 ft 154 kts 144°
2026-05-05 15:10 42.11275 8.54264 5049 ft 154 kts 144°
2026-05-05 15:10 42.10466 8.55173 4894 ft 153 kts 144°
2026-05-05 15:10 42.09639 8.56104 4725 ft 153 kts 144°
2026-05-05 15:10 42.08834 8.57007 4563 ft 152 kts 144°
2026-05-05 15:11 42.08022 8.57919 4400 ft 152 kts 144°
2026-05-05 15:11 42.07212 8.58829 4241 ft 151 kts 144°
2026-05-05 15:11 42.06408 8.59732 4079 ft 150 kts 144°
2026-05-05 15:11 42.05603 8.60635 3922 ft 151 kts 144°
2026-05-05 15:12 42.04796 8.61539 3763 ft 151 kts 144°
2026-05-05 15:12 42.03987 8.62445 3596 ft 151 kts 144°
2026-05-05 15:12 42.03178 8.63350 3438 ft 151 kts 144°
2026-05-05 15:12 42.02370 8.64257 3280 ft 152 kts 144°
2026-05-05 15:13 42.01559 8.65165 3117 ft 150 kts 143°
2026-05-05 15:13 42.00923 8.66257 2996 ft 147 kts 119°
2026-05-05 15:13 42.00657 8.67539 3006 ft 140 kts 103°
2026-05-05 15:13 42.00489 8.68812 3003 ft 136 kts 102°
2026-05-05 15:14 42.00499 8.70064 2987 ft 136 kts 71°
2026-05-05 15:14 42.00892 8.71177 2992 ft 130 kts 82°
2026-05-05 15:14 42.00744 8.72309 2991 ft 122 kts 127°
2026-05-05 15:14 42.00172 8.73080 2997 ft 114 kts 135°
2026-05-05 15:15 41.99873 8.74036 2996 ft 109 kts 108°
2026-05-05 15:15 41.99713 8.75016 2992 ft 106 kts 107°
2026-05-05 15:15 41.99570 8.75994 2997 ft 108 kts 105°
2026-05-05 15:15 41.99412 8.77032 2868 ft 119 kts 106°
2026-05-05 15:16 41.99238 8.78140 2734 ft 122 kts 104°
2026-05-05 15:16 41.99087 8.79268 2614 ft 123 kts 102°
2026-05-05 15:16 41.98957 8.80404 2484 ft 123 kts 100°
2026-05-05 15:16 41.98814 8.81549 2304 ft 125 kts 106°
2026-05-05 15:17 41.98343 8.82500 2057 ft 128 kts 152°
2026-05-05 15:17 41.97486 8.82770 1717 ft 130 kts 181°
2026-05-05 15:17 41.96593 8.82707 1263 ft 127 kts 193°
2026-05-05 15:17 41.95798 8.82373 821 ft 116 kts 206°
2026-05-05 15:18 41.95109 8.81926 568 ft 100 kts 207°
2026-05-05 15:18 41.94543 8.81579 398 ft 86 kts 205°
2026-05-05 15:18 41.93996 8.81256 284 ft 85 kts 207°
2026-05-05 15:18 41.93462 8.80918 140 ft 84 kts 206°
2026-05-05 15:19 41.92936 8.80588 39 ft 82 kts 208°
2026-05-05 15:19 41.92464 8.80294 16 ft 67 kts 204°
2026-05-05 15:19 41.92141 8.80089 15 ft 39 kts 205°
2026-05-05 15:19 41.91937 8.79962 12 ft 31 kts 204°
2026-05-05 15:20 41.91718 8.79826 11 ft 38 kts 205°
2026-05-05 15:20 41.91472 8.79674 12 ft 40 kts 204°
2026-05-05 15:20 41.91310 8.79572 17 ft 16 kts 205°
2026-05-05 15:20 41.91248 8.79478 17 ft 11 kts 244°
2026-05-05 15:21 41.91310 8.79387 18 ft 20 kts 335°
2026-05-05 15:21 41.91462 8.79342 21 ft 26 kts 14°
2026-05-05 15:21 41.91643 8.79448 21 ft 30 kts 25°
2026-05-05 15:21 41.91838 8.79570 21 ft 30 kts 24°
2026-05-05 15:22 41.92010 8.79677 21 ft 25 kts 24°
2026-05-05 15:22 41.92158 8.79768 21 ft 22 kts 25°
2026-05-05 15:22 41.92275 8.79831 21 ft 14 kts 343°
2026-05-05 15:22 41.92299 8.79731 21 ft 11 kts 276°
2026-05-05 15:23 41.92307 8.79609 16 ft 16 kts 275°
2026-05-05 15:23 41.92300 8.79524 16 ft 6 kts 187°
2026-05-05 15:23 41.92257 8.79519 16 ft 6 kts 185°
2026-05-05 15:23 41.92225 8.79499 18 ft 4 kts 256°
2026-05-05 15:24 41.92225 8.79503 18 ft 7 kts 32°
2026-05-05 15:24 41.92258 8.79480 15 ft 4 kts 299°
2026-05-05 15:24 41.92266 8.79480 15 ft 1 kts 78°
2026-05-05 15:24 41.92266 8.79481 15 ft 0 kts 76°
2026-05-05 15:27 41.92266 8.79480 15 ft 0 kts 76°
2026-05-05 15:40 41.92266 8.79482 15 ft 3 kts 76°
2026-05-05 15:40 41.92254 8.79518 17 ft 9 kts 190°
2026-05-05 15:41 41.92201 8.79475 18 ft 7 kts 224°
2026-05-05 15:41 41.92189 8.79484 18 ft 0 kts 359°
2026-05-05 15:41 41.92192 8.79484 18 ft 1 kts 358°
2026-05-05 15:41 41.92193 8.79484 18 ft 1 kts 351°
2026-05-05 15:42 41.92194 8.79472 18 ft 7 kts 232°
2026-05-05 15:42 41.92191 8.79484 18 ft 0 kts